Bad Axe, MI

2:37 AM EST on December 16, 2019 (GMT -0500)
Huron County Memorial

Weather History for KBAX - November, 2019

Change the Weather History Date:

Tuesday, November 12, 2019

  Actual Average (KP58) Record (KP58)
Temperature  
Mean Temperature 13 °F -  
Max Temperature 23 °F 44 °F 62 °F (2005)
Min Temperature 3 °F 34 °F 23 °F (2004)
Degree Days  
Heating Degree Days 52    
Moisture  
Dew Point 12 °F    
Average Humidity 75    
Maximum Humidity 94    
Minimum Humidity 52    
Precipitation  
Precipitation 0.00 in - - ()
Sea Level Pressure  
Sea Level Pressure 30.23 in    
Wind  
Wind Speed 8 mph ()    
Max Wind Speed 14 mph    
Max Gust Speed 18 mph    
Visibility 8.4 miles    
Events Snow    
Averages and records for this station are not official NWS values.
T = Trace of Precipitation, MM = Missing Value Source: Averaged Metar Reports

Daily Weather History Graph

Daily Weather History Graph

Search for Another Location

Airport or City:

Astronomy

Nov. 12, 2019 Rise Set
Actual Time 7:22 AM EST 5:09 PM EST
Civil Twilight 6:51 AM EST 5:40 PM EST
Nautical Twilight 6:16 AM EST 6:14 PM EST
Astronomical Twilight 5:42 AM EST 6:48 PM EST
Moon 5:36 PM EST (11/12) 7:10 AM EST (11/12)
Length of Visible Light 10h 48m
Length of Day
9h 47m
Full, 100% of the Moon is Illuminated
Nov 12
Full
Nov 19
Last Quarter
Nov 26
New
Dec 4
First Quarter
Dec 12
Full

Hourly Weather History & Observations

Time (EST) Temp. Windchill Dew Point Humidity Pressure Visibility Wind Dir Wind Speed Gust Speed Precip Events Conditions
12:16 AM 22.5 °F 11.7 °F 18.3 °F 84% 30.13 in 7.0 mi North 10.4 mph - N/A Snow Light Snow
12:36 AM 22.5 °F 11.1 °F 18.3 °F 84% 30.13 in 10.0 mi North 11.5 mph 16.1 mph N/A Snow Light Snow
12:55 AM 22.3 °F 11.5 °F 18.1 °F 84% 30.13 in 10.0 mi North 10.4 mph - N/A   Overcast
1:16 AM 22.1 °F 9.5 °F 18.5 °F 86% 30.13 in 5.0 mi North 13.8 mph - N/A Snow Light Snow
1:36 AM 21.9 °F 11.0 °F 18.9 °F 88% 30.13 in 7.0 mi North 10.4 mph - N/A Snow Light Snow
1:55 AM 21.7 °F 11.5 °F 18.5 °F 87% 30.14 in 7.0 mi North 9.2 mph - N/A   Overcast
2:15 AM 21.6 °F 12.1 °F 17.8 °F 85% 30.14 in 7.0 mi North 8.1 mph - N/A Snow Light Snow
2:35 AM 21.4 °F 11.1 °F 17.4 °F 85% 30.14 in 7.0 mi North 9.2 mph - N/A Snow Light Snow
2:56 AM 21.2 °F 8.3 °F 18.1 °F 88% 30.14 in 3.0 mi North 13.8 mph 18.4 mph N/A Snow Light Snow
3:35 AM 21.0 °F 10.6 °F 19.4 °F 93% 30.14 in 2.0 mi North 9.2 mph - N/A Snow Light Snow
3:55 AM 21.0 °F 10.6 °F 19.4 °F 93% 30.14 in 3.0 mi North 9.2 mph - N/A Snow Light Snow
4:16 AM 21.0 °F 10.6 °F 19.4 °F 93% 30.14 in 0.8 mi North 9.2 mph - N/A Snow Snow
4:55 AM 21.0 °F 11.4 °F 19.4 °F 93% 30.16 in 1.0 mi North 8.1 mph - N/A Snow Snow
5:16 AM 20.8 °F 10.4 °F 19.4 °F 94% 30.16 in 1.0 mi NNW 9.2 mph - N/A Snow Snow
5:35 AM 20.7 °F 11.0 °F 19.2 °F 94% 30.16 in 1.5 mi NNW 8.1 mph - N/A Snow Light Snow
5:55 AM 20.8 °F 11.2 °F 19.4 °F 94% 30.16 in 1.2 mi NNW 8.1 mph - N/A Snow Light Snow
6:15 AM 20.8 °F 9.7 °F 18.0 °F 89% 30.17 in 10.0 mi NW 10.4 mph - N/A Snow Light Snow
6:35 AM 20.5 °F 10.8 °F 15.6 °F 81% 30.17 in 10.0 mi NW 8.1 mph 16.1 mph N/A   Overcast
6:56 AM 19.6 °F 11.7 °F 15.4 °F 84% 30.18 in 10.0 mi North 5.8 mph - N/A   Overcast
7:15 AM 19.2 °F 14.1 °F 16.0 °F 87% 30.19 in 10.0 mi NNW 3.5 mph - N/A Snow Light Snow
7:36 AM 17.6 °F 10.7 °F 14.7 °F 88% 30.19 in 10.0 mi WNW 4.6 mph - N/A   Mostly Cloudy
7:56 AM 17.1 °F 7.6 °F 12.7 °F 83% 30.20 in 10.0 mi NW 6.9 mph - N/A   Scattered Clouds
8:15 AM 16.2 °F 6.5 °F 11.3 °F 81% 30.21 in 10.0 mi NW 6.9 mph - N/A   Clear
8:36 AM 16.9 °F 7.4 °F 12.2 °F 82% 30.22 in 10.0 mi NW 6.9 mph - N/A   Scattered Clouds
8:56 AM 18.5 °F 8.4 °F 12.9 °F 79% 30.22 in 10.0 mi NW 8.1 mph - N/A   Scattered Clouds
9:16 AM 20.1 °F 11.3 °F 12.9 °F 74% 30.23 in 10.0 mi NW 6.9 mph - N/A   Clear
9:36 AM 20.8 °F 11.2 °F 12.9 °F 71% 30.23 in 10.0 mi NW 8.1 mph - N/A   Clear
9:55 AM 21.2 °F 10.1 °F 12.2 °F 68% 30.24 in 3.0 mi NW 10.4 mph - N/A   Haze
10:16 AM 21.2 °F 9.5 °F 11.8 °F 67% 30.25 in 10.0 mi NW 11.5 mph - N/A   Clear
10:35 AM 21.7 °F 10.2 °F 11.3 °F 64% 30.25 in 10.0 mi NW 11.5 mph - N/A   Clear
11:15 AM 21.9 °F 9.8 °F 8.4 °F 56% 30.26 in 10.0 mi NW 12.7 mph - N/A   Clear
11:36 AM 22.5 °F 11.1 °F 7.0 °F 52% 30.26 in 10.0 mi WNW 11.5 mph - N/A   Clear
11:55 AM 22.5 °F 10.5 °F 7.5 °F 53% 30.26 in 10.0 mi NW 12.7 mph 17.3 mph N/A   Clear
12:36 PM 22.6 °F 10.7 °F 8.6 °F 55% 30.26 in 10.0 mi WNW 12.7 mph 16.1 mph N/A   Clear
12:55 PM 22.1 °F 10.6 °F 9.3 °F 58% 30.26 in 10.0 mi NW 11.5 mph 16.1 mph N/A   Clear
1:16 PM 22.1 °F 11.3 °F 8.8 °F 57% 30.26 in 10.0 mi WNW 10.4 mph - N/A   Clear
1:35 PM 22.5 °F 13.2 °F 9.1 °F 57% 30.26 in 10.0 mi WNW 8.1 mph - N/A   Clear
1:55 PM 23.0 °F 14.7 °F 9.5 °F 56% 30.26 in 10.0 mi WNW 6.9 mph - N/A   Clear
2:15 PM 23.0 °F 13.1 °F 9.0 °F 55% 30.26 in 10.0 mi WNW 9.2 mph - N/A   Clear
2:36 PM 22.6 °F 11.9 °F 8.4 °F 55% 30.26 in 10.0 mi NW 10.4 mph - N/A   Clear
2:55 PM 21.2 °F 12.6 °F 7.3 °F 55% 30.26 in 10.0 mi WNW 6.9 mph - N/A   Clear
3:16 PM 20.1 °F 11.3 °F 5.9 °F 54% 30.26 in 10.0 mi West 6.9 mph - N/A   Scattered Clouds
3:36 PM 20.3 °F 13.8 °F 7.3 °F 57% 30.26 in 10.0 mi West 4.6 mph - N/A   Scattered Clouds
3:55 PM 21.9 °F 12.5 °F 8.4 °F 56% 30.26 in 10.0 mi West 8.1 mph - N/A   Clear
4:16 PM 19.4 °F 9.5 °F 10.2 °F 68% 30.27 in 10.0 mi West 8.1 mph - N/A   Scattered Clouds
4:36 PM 19.2 °F 12.5 °F 13.8 °F 80% 30.27 in 5.0 mi West 4.6 mph - N/A Snow Light Snow
4:55 PM 19.0 °F 10.0 °F 13.6 °F 79% 30.27 in 7.0 mi West 6.9 mph - N/A Snow Light Snow
5:15 PM 20.1 °F - 14.5 °F 79% 30.27 in 5.0 mi Calm Calm - N/A Snow Light Snow
5:35 PM 20.1 °F - 14.2 °F 78% 30.27 in 10.0 mi Calm Calm - N/A   Overcast
5:56 PM 18.7 °F - 14.2 °F 83% 30.27 in 10.0 mi Calm Calm - N/A   Mostly Cloudy
6:15 PM 15.6 °F 10.0 °F 11.8 °F 85% 30.27 in 10.0 mi West 3.5 mph - N/A   Mostly Cloudy
6:35 PM 18.9 °F 8.8 °F 9.9 °F 68% 30.28 in 10.0 mi WNW 8.1 mph - N/A   Mostly Cloudy
6:55 PM 19.4 °F 9.5 °F 10.2 °F 68% 30.28 in 10.0 mi WNW 8.1 mph - N/A   Scattered Clouds
7:15 PM 19.2 °F 12.5 °F 10.4 °F 69% 30.28 in 10.0 mi WNW 4.6 mph - N/A   Mostly Cloudy
7:35 PM 18.5 °F 10.4 °F 9.9 °F 69% 30.28 in 10.0 mi WNW 5.8 mph - N/A   Scattered Clouds
7:55 PM 17.4 °F 8.0 °F 9.1 °F 70% 30.29 in 10.0 mi West 6.9 mph - N/A   Clear
8:15 PM 17.2 °F 7.8 °F 8.4 °F 68% 30.29 in 10.0 mi WNW 6.9 mph - N/A   Clear
8:36 PM 17.1 °F 7.6 °F 8.4 °F 69% 30.29 in 10.0 mi WNW 6.9 mph - N/A   Clear
8:55 PM 15.6 °F 7.0 °F 7.3 °F 70% 30.29 in 10.0 mi West 5.8 mph - N/A   Clear
9:16 PM 14.7 °F 7.3 °F 7.5 °F 73% 30.29 in 10.0 mi West 4.6 mph - N/A   Clear
9:36 PM 13.1 °F 5.4 °F 6.6 °F 75% 30.30 in 10.0 mi West 4.6 mph - N/A   Clear
9:56 PM 12.9 °F 3.8 °F 7.2 °F 78% 30.30 in 10.0 mi WSW 5.8 mph - N/A   Clear
10:15 PM 13.5 °F 4.4 °F 7.7 °F 78% 30.30 in 10.0 mi WSW 5.8 mph - N/A   Clear
10:35 PM 12.2 °F 4.3 °F 7.2 °F 80% 30.30 in 10.0 mi WSW 4.6 mph - N/A   Clear
10:55 PM 4.5 °F -2.7 °F 1.6 °F 88% 30.30 in 10.0 mi SW 3.5 mph - N/A   Clear
11:15 PM 3.7 °F -5.5 °F 1.2 °F 89% 30.30 in 10.0 mi SSW 4.6 mph - N/A   Clear
11:35 PM 4.1 °F -5.1 °F 1.4 °F 89% 30.30 in 10.0 mi WSW 4.6 mph - N/A   Clear